Location: Capon Springs and Farms
(39.1310°N, 78.4814°W)
Time: 17:41:04
(UTC-04:00)

Hubble Space Telescope - Visible Passes

Search period start: 18 March 2019 00:00
Search period end: 28 March 2019 00:00
Orbit: 537 x 540 km, 28.5° (Epoch: 17 March)

Date Brightness Start Highest point End Pass type
(mag) Time Alt. Az. Time Alt. Az. Time Alt. Az.
24 Mar 3.0 21:02:25 10° SSW 21:03:28 12° S 21:03:28 12° S visible
25 Mar 2.8 20:51:25 10° SSW 20:53:42 14° SSE 20:53:49 14° SSE visible
26 Mar 2.7 20:40:34 10° SSW 20:43:06 16° S 20:44:06 15° SSE visible
27 Mar 2.7 20:29:47 10° SW 20:32:30 17° S 20:34:20 13° SE visible
